Regional Weather Roundup
Issued by NWS

Home | Current Version | Previous Version | Graphics & Text | Print | Product List | Glossary On
Versions: 1 2 3 4 5 6 7 8 9 10 11 12 13 14 15 16 17 18 19 20 21 22 23 24 25 26 27 28 29 30 31 32 33 34 35 36 37 38 39 40 41 42 43 44 45 46 47 48 49 50
599
ASUS45 KBOU 291907
RWRCO

WEATHER ROUNDUP FOR COLORADO
NATIONAL WEATHER SERVICE DENVER/BOULDER CO
100 PM MDT SUN MAY 29 2016

NOTE: "FAIR" INDICATES FEW OR NO CLOUDS BELOW 12000 FEET WITH NO
SIGNIFICANT WEATHER AND/OR OBSTRUCTIONS TO VISIBILITY.

COZ001>005-013-030-031-292000-
...NORTHWEST COLORADO...

CITY           SKY/WX    TMP DP  RH WIND       PRES   REMARKS
CRAIG          FAIR      70  36  28 VRB6      30.18F
HAYDEN         FAIR      66  34  30 W14       30.19F
MEEKER           N/A     68  34  28 S10       30.20R
MOUNT WERNER   NOT AVBL
STEAMBOAT SPGS FAIR      67  32  26 W9G17     30.20F
WALDEN         NOT AVBL
$$

COZ006>008-011-292000-
...WEST CENTRAL VALLEYS...

CITY           SKY/WX    TMP DP  RH WIND       PRES   REMARKS
GRAND JUNCTION FAIR      73  35  25 SW9       30.12F
MONTROSE       FAIR      72  28  19 S18G26    30.18R
EAGLE          SUNNY     72  28  20 CALM      30.20F
RIFLE          FAIR      76  31  19 VRB6      30.12F
DELTA          FAIR      80  26  14 S6        30.11F
NUCLA          FAIR      77  27  15 NW8       30.17F
$$

COZ017>023-064>068-292000-
...SOUTHWEST COLORADO...

CITY           SKY/WX    TMP DP  RH WIND       PRES   REMARKS
DURANGO        FAIR      74  22  14 W9        30.18F
CORTEZ         FAIR      75  25  15 SW9       30.14F
PAGOSA SPRINGS FAIR      71   9   9 SW7G20    30.25F
TELLURIDE      CLOUDY    52  27  37 E8G25     30.41R
WOLF CREEK PAS FAIR      46  18  31 SW18G26   30.52S
$$

COZ009-010-012-014-032>034-037-058>063-292000-
...CENTRAL COLORADO...

CITY           SKY/WX    TMP DP  RH WIND       PRES   REMARKS
ASPEN          FAIR      63  30  28 NW15G25   30.25F
BUENA VISTA    FAIR      62  23  22 SE20G25   30.26S
COPPER MTN     NOT AVBL
BERTHOUD PASS  FAIR      37  30  75 W14G21    30.50F
COTTONWOOD PAS FAIR      61   5  11 E6G17     30.37F
GUNNISON       FAIR      66  25  20 S13G18    30.26F
KREMMLING      FAIR      70  27  19 W10       30.23F
LEADVILLE      FAIR      58  15  18 W9        30.36F
MONARCH PASS   FAIR      43  19  39 SW18G30   30.60F
SALIDA         PTSUNNY   64  26  23 S6        30.33F
SUNLIGHT       LGT RAIN  46  32  57 CALM      30.47S
WILKERSON PASS FAIR      55  25  30 SW6       30.48F
$$

COZ069>075-292000-
...SAN LUIS VALLEY/SANGRE DE CRISTO MOUNTAINS...

CITY           SKY/WX    TMP DP  RH WIND       PRES   REMARKS
ALAMOSA        FAIR      68  32  26 SW13G24   30.27S
LA VETA PASS   FAIR      61  30  31 CALM      30.43S
SAGUACHE       PTSUNNY   61  28  29 W8        30.31S
$$

COZ035-036-038>040-292000-
...NORTHERN COLORADO FRONT RANGE...

CITY           SKY/WX    TMP DP  RH WIND       PRES   REMARKS
DENVER INTL AP FAIR      75  42  30 E5        30.12F
DMNS CITY PARK   N/A     74  35  24 NE7G17    30.11S
AURORA         MOSUNNY   76  41  29 E7        30.13F
FRONT RANGE AP PTSUNNY   73  41  31 E6        30.14F
ERIE MUNI ARPT FAIR      74  40  29 CALM      30.11F
BOULDER MUN AP FAIR      72  39  30 E3        30.11F
CENTENNIAL     FAIR      74  29  19 SW5       30.13F
BROOMFIELD     MOSUNNY   73  41  31 VRB5      30.14F
FORT COLLINS   FAIR      73  48  40 E7        30.11F
LONGMONT       FAIR      79  44  28 E9        30.12F
$$

COZ041-046-047-076>085-087-088-292000-
...PIKES PEAK/PALMER DIVIDE AND SOUTHERN FOOTHILLS...

CITY           SKY/WX    TMP DP  RH WIND       PRES   REMARKS
COLO. SPRINGS  PTSUNNY   74  38  27 SE14      30.17F
A. F. ACADEMY  FAIR      72  39  30 SE13G20   30.17F
SCHRIEVER AFB  NOT AVBL
ELLICOTT       FAIR     N/A N/A N/A SW9G17    30.17F
FALCON         FAIR      71  37  29 MISG      30.22F
FORT CARSON    FAIR      74  38  27 S16       30.13F
LIMON          FAIR      73  47  39 S14       30.14F
MONUMENT HILL  FAIR      68  34  28 SW9       30.22F
TRINIDAD       FAIR      76  36  23 E7        30.16F
$$

COZ042>045-048>051-090-091-292000-
...NORTHEAST COLORADO...

CITY           SKY/WX    TMP DP  RH WIND       PRES   REMARKS
GREELEY ARPT   FAIR      73  48  40 E9        30.11F
AKRON          FAIR      75  47  36 SE9       30.12F
BURLINGTON     FAIR      79  49  34 S16       30.11F
WRAY           FAIR      81  46  30 CALM      30.08F
STERLING       FAIR      77  50  38 S5        30.08S
HOLYOKE        NOT AVBL
FORT MORGAN    FAIR      76  45  33 CALM      30.11F
$$

COZ086-089-092>099-292000-
...SOUTHEAST COLORADO...

CITY           SKY/WX    TMP DP  RH WIND       PRES   REMARKS
PUEBLO         FAIR      75  48  38 SE3       30.10F
LA JUNTA       FAIR      78  46  32 SW6       30.09F
LAMAR          FAIR      84  49  29 SW7       30.05F
SPRINGFIELD      N/A     81  53  37 S20G26    30.10F
$$




USA.gov is the U.S. government's official web portal to all federal, state and local government web resources and services.